Regional Weather Roundup
Issued by NWS Grand Forks, ND

Home | Current Version | Previous Version | Text Only | Print | Product List | Glossary On
Versions: 1 2 3 4 5 6 7 8 9 10 11 12 13 14 15 16 17 18 19 20 21 22 23 24 25 26 27 28 29 30 31 32 33 34 35 36 37 38 39 40 41 42 43 44 45 46 47 48 49 50
000
ASUS43 KFGF 300610
RWRFGF
PRAIRIE TO PINES  WEATHER ROUNDUP
NATIONAL WEATHER SERVICE EASTERN NORTH DAKOTA/GRAND FORKS ND
100 AM CDT MON MAR 30 2015

 **SATELLITE DATA USED TO AUGMENT SKY COVER AT AUTOMATED STATIONS**
 *****  WEATHER ACROSS EASTERN NORTH DAKOTA  *****

CITY           SKY/WX    TMP DP  RH WIND       PRES   REMARKS
GRAND FORKS    CLEAR     32  27  81 W7        29.90S
6HR MIN TEMP:  30; 6HR MAX TEMP:  51;

GRAND FRKS AFB NOT AVBL
GRAND FRKS NWS   N/A     32 N/A N/A W5          N/A
DEVILS LAKE    CLOUDY    30  27  86 CALM      29.89F
6HR MIN TEMP:  30; 6HR MAX TEMP:  52;

FARGO          CLEAR     34  26  72 W7        29.93R
WAHPETON ARPT  PTCLDY    32  27  80 W8        29.95R WCI  25
$$

 ***** WEATHER ACROSS CENTRAL AND WESTERN NORTH DAKOTA  *****

CITY           SKY/WX    TMP DP  RH WIND       PRES   REMARKS
BISMARCK       PTCLDY    38  31  76 CALM      29.93F
6HR MIN TEMP:  36; 6HR MAX TEMP:  59;

MINOT          MOCLDY    39  31  72 SE3       29.86F
6HR MIN TEMP:  36; 6HR MAX TEMP:  55;

JAMESTOWN      PTCLDY    34  29  82 CALM      29.91F
6HR MIN TEMP:  34; 6HR MAX TEMP:  53;

MINOT AFB      MOCLDY    35  35  99 S8        29.85F
GARRISON         N/A     38  30  73 S3        29.88F
WILLISTON      MOCLDY    42  33  70 SW7       29.87S
6HR MIN TEMP:  40; 6HR MAX TEMP:  59;

DICKINSON      CLEAR     39  28  64 SW8       29.91F
6HR MIN TEMP:  39; 6HR MAX TEMP:  56;

HETTINGER      PTCLDY    30  25  81 CALM      29.97F
6HR MIN TEMP:  30; 6HR MAX TEMP:  58;

$$

 *****  OTHER AIRPORT OBSERVATIONS IN OUR AREA  *****

CITY           SKY/WX    TMP DP  RH WIND       PRES   REMARKS
WALHALLA         N/A     37  28  70 W6        29.88S
GRAFTON AIRPOR NOT AVBL
VALLEY CITY AR FAIR      34  32  93 W3        29.93S
CANDO          NOT AVBL
CAVALIER APRT  FAIR      36  28  75 W7        29.87F
GWINNER        CLOUDY    39  32  75 W9          N/A
SHEYENNE NWR     N/A     36  29  74 W5        29.95S
ROLLA          MOCLDY    32  32 100 SW7       29.89R
 ***** THE ABOVE OBSERVATIONS ARE NON NWS ARE NOT QUALITY
       CONTROLLED AND MAY MIS-REPORT RAIN FOR SNOW...
$$

  *****  WEATHER ACROSS NORTHERN MINNESOTA  *****

CITY           SKY/WX    TMP DP  RH WIND       PRES   REMARKS
FLAG ISLAND    CLEAR     36  25  64 NW9       29.82S
WARROAD        CLEAR     36  27  69 W8        29.85R
ROSEAU         CLEAR     39  30  70 W6        29.85S
HALLOCK        CLEAR     34  30  86 W3        29.87F
THF RVR FALLS  CLEAR     37  28  70 W6        29.89S
6HR MIN TEMP:  36; 6HR MAX TEMP:  48;

BAUDETTE       CLEAR     34  25  69 W7        29.83R
6HR MIN TEMP:  34; 6HR MAX TEMP:  45;

WASKISH        CLEAR     34  30  86 CALM      29.85S
CROOKSTON      CLEAR     30  27  86 W6        29.91S WCI  24
STEPHEN NDAWN    N/A     37  30  75 W7          N/A
GREENBUSH NDAW   N/A     34  30  86 W5          N/A
$$
  *****  WEATHER ACROSS CENTRAL AND WEST MINNESOTA  *****

CITY           SKY/WX    TMP DP  RH WIND       PRES   REMARKS
FOSSTON        CLEAR     28  25  86 CALM      29.90S
BEMIDJI        CLEAR     32  27  82 SW6       29.87S
PARK RAPIDS    CLEAR     29  24  82 W7        29.89R WCI  22
6HR MIN TEMP:  29; 6HR MAX TEMP:  47;

ELBOW LAKE     FAIR      32  26  80 SW8       29.94R WCI  25
WADENA         CLEAR     34  27  75 W6        29.91S
DETROIT LAKES  CLEAR     39  30  70 W7        29.92S
MOORHEAD       CLEAR     37  30  75 W6        29.94R
FERGUS FALLS   CLEAR     36  27  69 CALM      29.96R
MORRIS MN      CLEAR     36  27  69 W6        29.94S
STAPLES        CLEAR     34  25  69 W5        29.91S
$$
  *****  WEATHER ELSEWHERE ACROSS MINNESOTA  *****

CITY           SKY/WX    TMP DP  RH WIND       PRES   REMARKS
DULUTH         CLEAR     36  25  64 W13       29.82S
6HR MIN TEMP:  32; 6HR MAX TEMP:  44;

INTRNTL FALLS  PTCLDY    34  25  69 W10       29.80R
6HR MIN TEMP:  34; 6HR MAX TEMP:  43;

ELY            CLEAR     34  27  75 W8        29.76S
CLOQUET        CLEAR     36  25  64 W7        29.84S
WHEATON        CLEAR     37  27  65 W8        29.98R
BRAINERD       CLEAR     33  24  69 SW8       29.90S
6HR MIN TEMP:  32; 6HR MAX TEMP:  48;

HIBBING        CLEAR     37  25  61 W8        29.82S
6HR MIN TEMP:  30; 6HR MAX TEMP:  42;

ALEXANDRIA     CLOUDY    36  27  69 SW7       29.93F
6HR MIN TEMP:  35; 6HR MAX TEMP:  49;

SAINT CLOUD    MOCLDY    36  27  69 SW5       29.93F
6HR MIN TEMP:  34; 6HR MAX TEMP:  49;

MINNEAPOLIS    MOCLDY    42  28  57 SW8       29.96S
6HR MIN TEMP:  42; 6HR MAX TEMP:  50;

$$

  *****  WEATHER ACROSS SOUTH DAKOTA  *****

CITY           SKY/WX    TMP DP  RH WIND       PRES   REMARKS
SIOUX FALLS    PTCLDY    37  21  52 SW5       30.04S
6HR MIN TEMP:  34; 6HR MAX TEMP:  56;

BROOKINGS      NOT AVBL
WATERTOWN      CLEAR     32  26  78 SW6       30.00R
6HR MIN TEMP:  30; 6HR MAX TEMP:  52;

HURON          CLOUDY    40  24  53 SW7       30.02R
6HR MIN TEMP:  38; 6HR MAX TEMP:  58;

SISSETON         N/A     44  27  51 W13       29.95R
ABERDEEN       MOCLDY    30  22  72 SW7       29.98F WCI  23
6HR MIN TEMP:  30; 6HR MAX TEMP:  58;

MITCHELL       MOCLDY    44  24  45 SW7       30.04S
PIERRE         CLOUDY    49  28  44 SW5       30.00S
6HR MIN TEMP:  44; 6HR MAX TEMP:  61;

MOBRIDGE       CLOUDY    43  32  65 SE7       29.95F
RAPID CITY     PTCLDY    46  28  49 S7        30.03F
6HR MIN TEMP:  39; 6HR MAX TEMP:  60;

$$

  *****  SOME WEATHER IN NEARBY STATES *****

CITY           SKY/WX    TMP DP  RH WIND       PRES   REMARKS
GLASGOW MT     PTCLDY    44  30  57 W10       29.88F
6HR MIN TEMP:  43; 6HR MAX TEMP:  61;

GREAT FALLS MT CLOUDY    51  30  44 SW22G29   30.02S
6HR MIN TEMP:  51; 6HR MAX TEMP:  57;

CHEYENNE WY    PTCLDY    45  23  42 SW9       30.16F
6HR MIN TEMP:  44; 6HR MAX TEMP:  59;

SCOTTSBLUFF NE PTCLDY    39  24  55 E7        30.09F
6HR MIN TEMP:  39; 6HR MAX TEMP:  64;

OMAHA NE       CLEAR     41  27  57 SE6       30.11F
6HR MIN TEMP:  37; 6HR MAX TEMP:  60;

DES MOINES IA  CLEAR     43  23  45 W5        30.10F
6HR MIN TEMP:  42; 6HR MAX TEMP:  60;

DAVENPORT IA   CLEAR     33  28  81 W10       30.03S WCI  25
6HR MIN TEMP:  32; 6HR MAX TEMP:  52;

CHICAGO IL     MOCLDY    40  32  73 W6        29.94R
6HR MIN TEMP:  39; 6HR MAX TEMP:  47; 6HR PCP: TRACE;

EAU CLAIRE WI  CLEAR     36  26  67 W9        29.92R
6HR MIN TEMP:  35; 6HR MAX TEMP:  48;

LA CROSSE WI   CLEAR     36  27  69 CALM      29.96R
6HR MIN TEMP:  36; 6HR MAX TEMP:  52;

$$

  *****  SOME NATIONAL WEATHER *****

CITY           SKY/WX    TMP DP  RH WIND       PRES   REMARKS
LA GUARDIA NY  MOCLDY    39  12  33 SW10      30.08F
6HR MIN TEMP:  38; 6HR MAX TEMP:  41;

RALEIGH NC     PTCLDY    42  17  36 SW12      30.19F
6HR MIN TEMP:  41; 6HR MAX TEMP:  46;

ATLANTA GA     PTCLDY    50  27  40 S6        30.21F
6HR MIN TEMP:  50; 6HR MAX TEMP:  59;

NEW ORLEANS LA CLEAR     64  61  90 S3        30.20F
6HR MIN TEMP:  64; 6HR MAX TEMP:  71;

OKLAHOMA CITY  PTCLDY    54  42  64 NW3       30.17S
6HR MIN TEMP:  54; 6HR MAX TEMP:  73;

ALBUQUERQUE NM MOCLDY    61  26  26 E22G31    30.21R
6HR MIN TEMP:  61; 6HR MAX TEMP:  77;

SALT LAKE CITY CLEAR     49  24  37 SE6       30.19R
6HR MIN TEMP:  49; 6HR MAX TEMP:  65;

LOS ANGELES CA MOCLDY    60  58  92 W8        30.03S



USA.gov is the U.S. government's official web portal to all federal, state and local government web resources and services.